Flag for U.S.A. Weather past 2 weeks in Bradenton, Florida, U.S.A.

Now
69 °F

Sunny.


Feels Like: 69 °F
Forecast: 47 / 72 °F
Wind: 9 mph from West

Location: Sarasota-Bradenton International Airport

Current Time: Dec 19, 2014 at 3:30:02 PM

Latest Report: Dec 19, 2014 at 2:53 PM


Visibility: 10 mi

Pressure: 30.02 "Hg

Humidity: 59%

Dew point: 54 °F

Location of BradentonLocation

Historic Weather in Bradenton — Graph

°F

Bradenton temperature yesterday

Maximum temperature yesterday: 68 °F (at 1:53 PM)
Minimum temperature yesterday: 46 °F (at 4:53 AM)
Average temperature yesterday: 56 °F

Past Weeks' High & Low Weather Summary

 TemperatureHumidityPressure
High82 °F (Dec 4, 1:53 PM)100% (Dec 6, 2:53 AM)30.28 "Hg (Dec 6, 2:53 AM)
Low41 °F (Dec 13, 3:53 AM)30% (Dec 13, 1:53 PM)30.03 "Hg (Dec 8, 2:53 PM)
Average59 °F81%30.12 "Hg
* Reported Dec 4 1:53 PM — Dec 19 1:53 PM, Bradenton, Weather by CustomWeather, © 2014

Note: Actual official high and low records may vary slightly from our data, if they occured in-between our weather recording intervals... More about our weather records

Advertising

Bradenton weather history for previous 24 hours

 ConditionsComfort  
Time TempWeatherWind HumidityBarometerVisibility
1:53 PM
Dec 19
73 °FSunny.7 mph40%30.04 "Hg10 mi
12:53 PM72 °FSunny.5 mph44%30.07 "Hg10 mi
11:53 AM69 °FSunny.7 mph53%30.09 "Hg10 mi
10:53 AM66 °FSunny.7 mph56%30.11 "Hg10 mi
9:53 AM61 °FSunny.6 mph72%30.13 "Hg10 mi
8:53 AM56 °FSunny.5 mph84%30.12 "Hg10 mi
7:53 AM50 °FSunny.5 mph96%30.11 "Hg7 mi
6:53 AM49 °FClear.No wind93%30.09 "Hg9 mi
5:53 AM49 °FClear.3 mph97%30.08 "Hg9 mi
4:53 AM49 °FClear.3 mph97%30.08 "Hg10 mi
3:53 AM50 °FClear.5 mph96%30.09 "Hg10 mi
2:53 AM50 °FClear.6 mph96%30.10 "Hg8 mi
1:53 AM50 °FClear.5 mph96%30.10 "Hg10 mi
12:53 AM51 °FClear.No wind100%30.11 "Hg10 mi
11:53 PM
Dec 18
49 °FFog.No wind100%30.12 "Hg4 mi
10:53 PM50 °FFog.No wind100%30.12 "Hg3 mi
9:53 PM52 °FClear.No wind100%30.11 "Hg8 mi
8:53 PM54 °FClear.No wind97%30.10 "Hg10 mi
7:53 PM57 °FClear.3 mph90%30.11 "Hg10 mi
6:53 PM58 °FClear.3 mph87%30.11 "Hg10 mi
5:53 PM61 °FClear.9 mph78%30.11 "Hg10 mi
4:53 PM65 °FSunny.8 mph68%30.08 "Hg10 mi
3:53 PM68 °FSunny.9 mph63%30.09 "Hg10 mi
Weather by CustomWeather, © 2014

See weather overviewHow to use our weather pages